Regional Weather Roundup
Issued by NWS

Home | Current Version | Previous Version | Graphics & Text | Print | Product List | Glossary On
Versions: 1 2 3 4 5 6 7 8 9 10 11 12 13 14 15 16 17 18 19 20 21 22 23 24 25 26 27 28 29 30 31 32 33 34 35 36 37 38 39 40 41 42 43 44 45 46 47 48 49 50
000
ASUS43 KIND 180309
RWRIN

WEATHER ROUNDUP FOR INDIANA
NATIONAL WEATHER SERVICE INDIANAPOLIS IN
1100 PM EDT TUE OCT 17 2017

NOTE: "FAIR" INDICATES FEW OR NO CLOUDS BELOW 12,000 FEET WITH NO
SIGNIFICANT WEATHER AND/OR OBSTRUCTIONS TO VISIBILITY.

* - STATION DOES NOT REPORT WEATHER SUCH AS PRECIPITATION OR FOG.

+ - STATION NOT QUALITY CONTROLLED BY THE NATIONAL WEATHER SERVICE.
    USE DATA WITH CAUTION...ESPECIALLY DEWPOINT AND RELATIVE
    HUMIDITY OBSERVATIONS.

INZ001>003-010>013-019-020-180400-
NORTHWEST INDIANA

CITY           SKY/WX    TMP DP  RH WIND       PRES   REMARKS
GARY /AIRPORT/ CLEAR     59  37  44 S5        30.19R
KNOX *+        CLEAR     50  39  66 S5        30.20S
LA PORTE +     CLEAR     53  40  61 SW6       30.21R
MICHIGAN CITY+ CLEAR     54  39  58 S5        30.20R
MONTICELLO +   CLEAR     51  39  65 S6        30.22R
RENSSELAER +   CLEAR     52  32  46 S8        30.21S
VALPARAISO     CLEAR     54  40  59 CALM      30.21R

$$

LMZ046-743>745-180400-
SOUTHERN LAKE MICHIGAN

STATION/POSITION TIME  TEMP    WIND        PRES    WAVE
                       AIR SEA DIR/SP/G            HT
                 (UTC) (F)     (DEG/KT/KT) (MB)    (FT)
BURNS HARBOR     0240   59     190/ 12/ 15 1022.4R
MICHIGAN CITY    0240   59     180/ 12/ 13   N/A
5NW MICH CITY    0250   59 58  200/ 10/ 12   N/A     1

$$

INZ004-005-014>016-021>024-180400-
NORTH CENTRAL INDIANA

CITY           SKY/WX    TMP DP  RH WIND       PRES   REMARKS
GOSHEN         CLEAR     52  39  61 S8        30.21R
LOGANSPORT +   CLEAR     46  39  76 S6        30.24R
PERU/GRISSOM   CLEAR     48  40  74 SW6       30.22S
SOUTH BEND     CLEAR     52  40  63 S7        30.21R
WARSAW +       PTCLDY    54  41  62 CALM      30.23R

$$

INZ006>009-017-018-025>027-180400-
NORTHEAST INDIANA

CITY           SKY/WX    TMP DP  RH WIND       PRES   REMARKS
AUBURN +       CLEAR     48  41  76 CALM      30.24R
FORT WAYNE     CLEAR     52  39  61 SW3       30.25R
HUNTINGTON +   CLEAR     49  40  72 S3        30.23R
KENDALLVILLE + CLEAR     51  41  67 S6        30.23S

$$

INZ028-029-035-036-043>045-051>053-180400-
WEST CENTRAL INDIANA

CITY           SKY/WX    TMP DP  RH WIND       PRES   REMARKS
CRAWFORDSVL +  CLEAR     45  39  81 S5        30.25
GREENCASTLE +  CLEAR     46  39  76 CALM      30.26S
LAFAYETTE      CLEAR     52  41  66 S6        30.23S
TERRE HAUTE    CLEAR     45  40  82 CALM      30.25R

$$

INZ030>032-037>040-046>048-054>057-064-065-180400-
CENTRAL INDIANA

CITY           SKY/WX    TMP DP  RH WIND       PRES   REMARKS
CP ATTERBURY + CLEAR     41  39  93 CALM      30.28R
FISHERS *+     CLEAR     48  43  81 S3        30.26S
FRANKFORT +    CLEAR     50  42  72 SW3       30.25F
GREENWOOD *+   CLEAR     51  44  76 S3        30.27R
INDIANAPOLIS   CLEAR     52  40  63 S6        30.26S
-EAGLE CREEK   CLEAR     50  41  71 CALM      30.25S
KOKOMO +       CLEAR     50  40  68 SW7       30.24R
MT COMFORT *+  CLEAR     48  43  81 S5        30.27R
SHELBYVILLE    CLEAR     47  39  74 S6        30.26S
ZIONSVILLE +   CLEAR     45  40  82 S3        30.26S

$$

INZ033-034-041-042-049-050-058-059-180400-
EAST CENTRAL INDIANA

CITY           SKY/WX    TMP DP  RH WIND       PRES   REMARKS
MUNCIE         CLEAR     54  39  57 S5        30.25S
RICHMOND +     CLEAR     43  39  87 SW6       30.28S

$$

INZ060-061-067>069-081>083-085>088-180400-
SOUTHWEST INDIANA

CITY           SKY/WX    TMP DP  RH WIND       PRES   REMARKS
EVANSVILLE     CLEAR     50  44  80 CALM      30.26S
HUNTINGBURG +  CLEAR     47  44  90 SE3       30.27R
WASHINGTON +   CLEAR     46  42  88 SE3       30.26R

$$

INZ062-063-066-070>080-084-089>092-180400-
SOUTH CENTRAL AND SOUTHEAST INDIANA

CITY           SKY/WX    TMP DP  RH WIND       PRES   REMARKS
BEDFORD +      CLEAR     46  41  81 SE3       30.26S
BLOOMINGTON    CLEAR     45  39  79 CALM      30.26S
MADISON *+     CLEAR     45  43  93 CALM      30.30S
NORTH VERNON + CLEAR     43  41  93 CALM      30.28S
SEYMOUR +      CLEAR     45  39  81 CALM      30.28R

$$




USA.gov is the U.S. government's official web portal to all federal, state and local government web resources and services.